IW7DVM-13 Weather Reports


Display with metric or nautical units.
time (UTC)temp
F
wind
direction
speed
MPH
gust
MPH
rain 1hr
in
rain 24hr
in
rain mn
in
humidity
%
barometer
mb
20260903210003 82 329 6.0 12.0 0.00 0.00 0.00 59 1010.2
20260903205503 82 342 6.0 12.0 0.00 0.00 0.00 59 1010.2
20260903205003 82 324 6.0 14.0 0.00 0.00 0.00 59 1010.3
20260903204503 82 345 6.0 13.0 0.00 0.00 0.00 58 1010.4
20260903204003 82 330 6.0 15.0 0.00 0.00 0.00 58 1010.3
20260903203503 82 328 5.0 10.0 0.00 0.00 0.00 57 1010.2
20260903203003 82 332 4.0 8.0 0.00 0.00 0.00 57 1010.2
20260903202503 82 335 4.0 10.0 0.00 0.00 0.00 57 1010.1
20260903202003 82 313 3.0 9.0 0.00 0.00 0.00 56 1010.1
20260903201503 82 333 4.0 9.0 0.00 0.00 0.00 56 1010.2
20260903201003 82 329 4.0 8.0 0.00 0.00 0.00 56 1010.2
20260903200503 82 347 5.0 15.0 0.00 0.00 0.00 56 1010.1
20260903200003 82 335 5.0 10.0 0.00 0.00 0.00 55 1010.0
20260903195503 82 328 3.0 9.0 0.00 0.00 0.00 55 1010.0
20260903195003 82 333 4.0 11.0 0.00 0.00 0.00 54 1010.1
20260903194503 82 321 4.0 8.0 0.00 0.00 0.00 54 1010.0
20260903194003 82 340 3.0 8.0 0.00 0.00 0.00 53 1009.9
20260903193503 82 317 3.0 6.0 0.00 0.00 0.00 53 1009.9
20260903193003 82 337 2.0 5.0 0.00 0.00 0.00 53 1010.0
20260903192503 82 335 4.0 8.0 0.00 0.00 0.00 52 1009.8
20260903192003 82 340 5.0 8.0 0.00 0.00 0.00 52 1009.9
20260903191503 83 349 5.0 12.0 0.00 0.00 0.00 51 1009.6
20260903191003 83 4 4.0 8.0 0.00 0.00 0.00 51 1009.6
20260903190503 83 6 6.0 11.0 0.00 0.00 0.00 50 1009.9
20260903190003 83 2 6.0 11.0 0.00 0.00 0.00 50 1009.7
20260903185503 83 12 6.0 10.0 0.00 0.00 0.00 49 1009.7
20260903185003 83 4 7.0 12.0 0.00 0.00 0.00 49 1009.6
20260903184503 84 7 7.0 11.0 0.00 0.00 0.00 49 1009.6
20260903184003 84 8 6.0 11.0 0.00 0.00 0.00 48 1009.6
20260903183503 84 9 8.0 15.0 0.00 0.00 0.00 48 1009.6
20260903183003 84 355 6.0 15.0 0.00 0.00 0.00 48 1009.5
20260903182503 84 9 7.0 11.0 0.00 0.00 0.00 47 1009.5
20260903182004 85 6 6.0 11.0 0.00 0.00 0.00 47 1009.4
20260903181503 85 12 6.0 12.0 0.00 0.00 0.00 46 1009.4
20260903181003 85 13 6.0 11.0 0.00 0.00 0.00 46 1009.3
20260903180503 86 11 6.0 11.0 0.00 0.00 0.00 45 1009.3
20260903180003 86 359 8.0 14.0 0.00 0.00 0.00 45 1009.3
20260903175503 86 360 7.0 13.0 0.00 0.00 0.00 44 1009.2
20260903175003 86 358 8.0 15.0 0.00 0.00 0.00 44 1009.3
20260903174503 87 1 9.0 17.0 0.00 0.00 0.00 43 1009.3
20260903174003 87 352 10.0 17.0 0.00 0.00 0.00 43 1009.2
20260903173503 87 3 9.0 19.0 0.00 0.00 0.00 43 1009.1
20260903173003 87 9 8.0 14.0 0.00 0.00 0.00 42 1009.2
20260903172503 87 4 7.0 12.0 0.00 0.00 0.00 42 1009.1
20260903172003 88 4 7.0 13.0 0.00 0.00 0.00 41 1009.0
20260903171503 88 359 7.0 13.0 0.00 0.00 0.00 41 1009.0
20260903171003 88 14 7.0 13.0 0.00 0.00 0.00 40 1009.0
20260903170503 89 13 8.0 13.0 0.00 0.00 0.00 40 1009.1
20260903170003 89 14 11.0 16.0 0.00 0.00 0.00 38 1009.2
20260903165503 89 360 9.0 18.0 0.00 0.00 0.00 38 1008.9
20260903165003 90 358 8.0 15.0 0.00 0.00 0.00 37 1008.7
20260903164503 90 357 9.0 20.0 0.00 0.00 0.00 36 1009.0
20260903164003 91 3 6.0 12.0 0.00 0.00 0.00 36 1008.9
20260903163504 91 352 8.0 12.0 0.00 0.00 0.00 36 1008.7
20260903163003 91 353 10.0 14.0 0.00 0.00 0.00 35 1008.7
20260903162503 91 350 10.0 18.0 0.00 0.00 0.00 34 1008.7
20260903162003 92 356 10.0 20.0 0.00 0.00 0.00 34 1008.6
20260903161503 92 360 8.0 15.0 0.00 0.00 0.00 34 1008.6
20260903161003 92 358 9.0 15.0 0.00 0.00 0.00 34 1008.8
20260903160503 92 348 11.0 18.0 0.00 0.00 0.00 33 1008.8
20260903160003 92 356 11.0 18.0 0.00 0.00 0.00 33 1008.7
20260903155503 93 7 11.0 17.0 0.00 0.00 0.00 33 1008.7
20260903155003 93 356 12.0 20.0 0.00 0.00 0.00 34 1008.7
20260903154503 93 348 7.0 13.0 0.00 0.00 0.00 34 1008.6
20260903154003 93 343 9.0 17.0 0.00 0.00 0.00 34 1008.5
20260903153503 93 341 9.0 17.0 0.00 0.00 0.00 34 1008.6
20260903153003 93 353 11.0 19.0 0.00 0.00 0.00 35 1008.4
20260903152503 93 354 12.0 21.0 0.00 0.00 0.00 35 1008.5
20260903152003 93 340 10.0 19.0 0.00 0.00 0.00 35 1008.4
20260903151503 94 337 11.0 19.0 0.00 0.00 0.00 34 1008.3
20260903151003 95 358 10.0 17.0 0.00 0.00 0.00 33 1008.3
20260903150503 95 356 7.0 13.0 0.00 0.00 0.00 34 1008.3
20260903150003 95 360 9.0 19.0 0.00 0.00 0.00 34 1008.4
20260903145503 95 332 9.0 18.0 0.00 0.00 0.00 33 1008.4
20260903145003 96 357 10.0 20.0 0.00 0.00 0.00 33 1008.3
20260903144503 95 344 9.0 16.0 0.00 0.00 0.00 33 1008.2
20260903144003 96 343 9.0 19.0 0.00 0.00 0.00 32 1008.3
20260903143503 96 344 8.0 15.0 0.00 0.00 0.00 33 1008.4
20260903143003 96 352 9.0 18.0 0.00 0.00 0.00 33 1008.3
20260903142503 96 346 11.0 18.0 0.00 0.00 0.00 31 1008.3
20260903142003 97 353 10.0 19.0 0.00 0.00 0.00 31 1008.3
20260903141503 96 344 7.0 16.0 0.00 0.00 0.00 31 1008.3
20260903141003 96 338 9.0 17.0 0.00 0.00 0.00 31 1008.2
20260903140503 96 328 10.0 18.0 0.00 0.00 0.00 30 1008.1
20260903140003 96 336 8.0 17.0 0.00 0.00 0.00 31 1008.1
20260903135503 96 315 7.0 17.0 0.00 0.00 0.00 31 1008.1
20260903135003 96 295 5.0 13.0 0.00 0.00 0.00 31 1008.0
20260903134503 96 318 9.0 17.0 0.00 0.00 0.00 31 1008.3
20260903134003 96 304 6.0 15.0 0.00 0.00 0.00 30 1008.2
20260903133503 96 300 7.0 15.0 0.00 0.00 0.00 32 1008.2
20260903133003 96 330 7.0 15.0 0.00 0.00 0.00 31 1008.5
20260903132503 96 348 8.0 15.0 0.00 0.00 0.00 31 1008.4
20260903132003 96 341 10.0 17.0 0.00 0.00 0.00 31 1008.5
20260903131503 96 345 10.0 16.0 0.00 0.00 0.00 30 1008.5
20260903131003 96 342 10.0 17.0 0.00 0.00 0.00 30 1008.6
20260903130503 96 332 10.0 15.0 0.00 0.00 0.00 31 1008.6
20260903130003 96 327 10.0 17.0 0.00 0.00 0.00 31 1008.6
20260903125503 97 357 9.0 19.0 0.00 0.00 0.00 31 1008.7
20260903125003 96 337 8.0 15.0 0.00 0.00 0.00 31 1008.3
20260903124503 96 347 9.0 16.0 0.00 0.00 0.00 30 1008.4
20260903124003 96 326 9.0 18.0 0.00 0.00 0.00 31 1008.5
20260903123503 96 303 6.0 12.0 0.00 0.00 0.00 31 1008.5
20260903123003 96 334 8.0 14.0 0.00 0.00 0.00 30 1008.6
20260903122503 97 338 10.0 19.0 0.00 0.00 0.00 28 1008.6
20260903122003 98 351 7.0 20.0 0.00 0.00 0.00 30 1008.6
20260903121503 97 351 8.0 16.0 0.00 0.00 0.00 30 1008.5
20260903121003 97 331 7.0 16.0 0.00 0.00 0.00 30 1008.6
20260903120503 97 348 10.0 17.0 0.00 0.00 0.00 31 1008.6
20260903120003 97 318 8.0 17.0 0.00 0.00 0.00 30 1008.6
20260903115503 97 349 9.0 19.0 0.00 0.00 0.00 31 1008.7
20260903115003 97 342 7.0 13.0 0.00 0.00 0.00 30 1008.8
20260903114503 97 355 8.0 15.0 0.00 0.00 0.00 31 1008.7
20260903114003 96 335 8.0 16.0 0.00 0.00 0.00 30 1008.9
20260903113503 96 341 8.0 14.0 0.00 0.00 0.00 30 1009.1
20260903113003 96 343 8.0 18.0 0.00 0.00 0.00 30 1009.0
20260903112503 95 327 9.0 17.0 0.00 0.00 0.00 31 1009.2
20260903112003 96 329 9.0 19.0 0.00 0.00 0.00 30 1008.9
20260903111503 96 347 7.0 13.0 0.00 0.00 0.00 31 1009.0
20260903111003 96 334 9.0 17.0 0.00 0.00 0.00 31 1009.1
20260903110503 96 325 4.0 11.0 0.00 0.00 0.00 33 1009.1
20260903110003 95 319 6.0 14.0 0.00 0.00 0.00 33 1009.1
20260903105503 94 285 4.0 10.0 0.00 0.00 0.00 34 1009.3
20260903105003 93 267 4.0 9.0 0.00 0.00 0.00 39 1009.3
20260903104503 92 220 6.0 13.0 0.00 0.00 0.00 45 1009.3
20260903104003 92 199 5.0 9.0 0.00 0.00 0.00 47 1009.4
20260903103503 91 203 6.0 9.0 0.00 0.00 0.00 51 1009.4
20260903103003 90 207 5.0 10.0 0.00 0.00 0.00 53 1009.4
20260903102503 90 213 7.0 15.0 0.00 0.00 0.00 53 1009.5
20260903102003 91 214 6.0 11.0 0.00 0.00 0.00 51 1009.6
20260903101503 91 217 5.0 12.0 0.00 0.00 0.00 50 1009.6
20260903101003 90 222 5.0 11.0 0.00 0.00 0.00 50 1009.7
20260903100503 90 218 6.0 11.0 0.00 0.00 0.00 50 1009.8
20260903100003 89 220 6.0 11.0 0.00 0.00 0.00 52 1009.8
20260903095503 88 209 4.0 11.0 0.00 0.00 0.00 55 1009.8
20260903095003 87 214 8.0 12.0 0.00 0.00 0.00 56 1009.7
20260903094503 87 211 8.0 13.0 0.00 0.00 0.00 56 1009.9
20260903094003 87 217 7.0 12.0 0.00 0.00 0.00 57 1009.9
20260903093503 87 212 7.0 11.0 0.00 0.00 0.00 56 1009.9
20260903093003 87 209 6.0 13.0 0.00 0.00 0.00 55 1010.1
20260903092503 87 211 7.0 11.0 0.00 0.00 0.00 55 1010.0
20260903092003 88 210 5.0 12.0 0.00 0.00 0.00 55 1010.1
20260903091503 88 213 5.0 11.0 0.00 0.00 0.00 55 1010.1
20260903091003 88 208 4.0 10.0 0.00 0.00 0.00 56 1010.2
20260903090503 88 220 4.0 9.0 0.00 0.00 0.00 55 1010.3
20260903090003 87 212 4.0 8.0 0.00 0.00 0.00 56 1010.3
20260903085503 87 221 5.0 12.0 0.00 0.00 0.00 56 1009.9
20260903085003 87 216 4.0 7.0 0.00 0.00 0.00 55 1010.1
20260903084503 87 218 4.0 7.0 0.00 0.00 0.00 54 1010.1
20260903084004 87 214 5.0 9.0 0.00 0.00 0.00 54 1010.1
20260903083503 88 236 3.0 7.0 0.00 0.00 0.00 53 1010.2
20260903083003 87 228 2.0 5.0 0.00 0.00 0.00 54 1010.2
20260903082503 87 218 4.0 7.0 0.00 0.00 0.00 54 1009.9
20260903082003 87 219 4.0 8.0 0.00 0.00 0.00 53 1010.0
20260903081503 89 267 2.0 8.0 0.00 0.00 0.00 52 1009.9
20260903081003 88 237 1.0 4.0 0.00 0.00 0.00 53 1009.9
20260903080503 88 268 2.0 4.0 0.00 0.00 0.00 53 1010.0
20260903080003 87 294 1.0 4.0 0.00 0.00 0.00 54 1010.0
20260903075503 87 268 3.0 6.0 0.00 0.00 0.00 54 1010.0
20260903075003 86 313 3.0 5.0 0.00 0.00 0.00 55 1010.0
20260903074503 86 332 2.0 5.0 0.00 0.00 0.00 56 1009.8
20260903074003 85 265 2.0 5.0 0.00 0.00 0.00 58 1009.9
20260903073503 84 239 4.0 8.0 0.00 0.00 0.00 59 1009.9
20260903073003 84 252 3.0 7.0 0.00 0.00 0.00 59 1009.9
20260903072503 84 233 3.0 7.0 0.00 0.00 0.00 59 1010.0
20260903072003 84 250 3.0 8.0 0.00 0.00 0.00 60 1009.9
20260903071503 84 235 4.0 9.0 0.00 0.00 0.00 60 1009.8
20260903071003 84 241 3.0 7.0 0.00 0.00 0.00 59 1009.8
20260903070503 83 267 3.0 5.0 0.00 0.00 0.00 60 1009.7
20260903070004 83 267 3.0 8.0 0.00 0.00 0.00 60 1009.8
20260903065503 83 268 3.0 7.0 0.00 0.00 0.00 61 1009.8
20260903065003 83 269 2.0 5.0 0.00 0.00 0.00 61 1009.8
20260903064503 83 283 2.0 7.0 0.00 0.00 0.00 61 1009.7
20260903064003 82 260 4.0 9.0 0.00 0.00 0.00 61 1009.7
20260903063503 82 265 4.0 6.0 0.00 0.00 0.00 62 1009.7
20260903063003 82 264 4.0 8.0 0.00 0.00 0.00 62 1009.9
20260903062503 81 262 3.0 9.0 0.00 0.00 0.00 62 1009.7
20260903062003 81 272 4.0 6.0 0.00 0.00 0.00 62 1009.9
20260903061503 81 264 3.0 6.0 0.00 0.00 0.00 63 1009.9
20260903061003 81 264 3.0 7.0 0.00 0.00 0.00 64 1009.9
20260903060503 80 258 3.0 6.0 0.00 0.00 0.00 64 1009.9
20260903060003 80 267 4.0 8.0 0.00 0.00 0.00 64 1009.9
20260903055503 80 264 4.0 6.0 0.00 0.00 0.00 65 1009.9
20260903055003 80 267 4.0 7.0 0.00 0.00 0.00 65 1009.8
20260903054503 80 253 4.0 6.0 0.00 0.00 0.00 66 1009.7
20260903054003 80 266 3.0 5.0 0.00 0.00 0.00 66 1009.7
20260903053503 80 262 3.0 6.0 0.00 0.00 0.00 66 1009.7
20260903053003 80 262 2.0 4.0 0.00 0.00 0.00 66 1009.6
20260903052503 79 267 3.0 5.0 0.00 0.00 0.00 66 1009.7
20260903052003 79 271 1.0 4.0 0.00 0.00 0.00 66 1009.7
20260903051503 79 273 1.0 4.0 0.00 0.00 0.00 66 1009.7
20260903051003 79 275 1.0 4.0 0.00 0.00 0.00 66 1009.7
20260903050503 78 274 1.0 3.0 0.00 0.00 0.00 66 1009.7
20260903050003 78 272 1.0 3.0 0.00 0.00 0.00 66 1009.7
20260903045503 78 283 1.0 4.0 0.00 0.00 0.00 66 1009.8
20260903045003 78 317 2.0 4.0 0.00 0.00 0.00 66 1009.7
20260903044503 78 323 2.0 6.0 0.00 0.00 0.00 66 1009.7
20260903044003 78 280 2.0 4.0 0.00 0.00 0.00 66 1009.6
20260903043503 78 291 1.0 2.0 0.00 0.00 0.00 66 1009.6
20260903043003 78 270 0.0 2.0 0.00 0.00 0.00 67 1009.6
20260903042503 78 277 1.0 2.0 0.00 0.00 0.00 67 1009.5
20260903042003 77 271 1.0 3.0 0.00 0.00 0.00 67 1009.5
20260903041503 77 276 1.0 3.0 0.00 0.00 0.00 67 1009.5
20260903041003 77 276 1.0 3.0 0.00 0.00 0.00 67 1009.5
20260903040503 77 267 1.0 3.0 0.00 0.00 0.00 67 1009.5
20260903040003 76 282 1.0 2.0 0.00 0.00 0.00 67 1009.6
20260903035503 76 337 0.0 2.0 0.00 0.00 0.00 68 1009.7
20260903035003 76 337 0.0 1.0 0.00 0.00 0.00 68 1009.5
20260903034503 76 337 0.0 1.0 0.00 0.00 0.00 68 1009.5
20260903034003 76 0 0.0 0.0 0.00 0.00 0.00 68 1009.5
20260903033503 75 0 0.0 0.0 0.00 0.00 0.00 68 1009.4
20260903033003 75 0 0.0 0.0 0.00 0.00 0.00 68 1009.5
20260903032503 75 0 0.0 0.0 0.00 0.00 0.00 68 1009.6
20260903032003 75 337 0.0 1.0 0.00 0.00 0.00 68 1009.7
20260903031503 75 337 0.0 1.0 0.00 0.00 0.00 68 1009.5
20260903031003 75 337 0.0 1.0 0.00 0.00 0.00 68 1009.5
20260903030503 75 337 1.0 2.0 0.00 0.00 0.00 68 1009.5
20260903030003 75 337 1.0 2.0 0.00 0.00 0.00 68 1009.5
20260903025503 75 337 1.0 2.0 0.00 0.00 0.00 68 1009.5
20260903025003 75 337 1.0 2.0 0.00 0.00 0.00 67 1009.5
20260903024503 75 337 0.0 1.0 0.00 0.00 0.00 67 1009.6
20260903024003 75 337 0.0 2.0 0.00 0.00 0.00 67 1009.7
20260903023503 76 337 0.0 1.0 0.00 0.00 0.00 67 1009.6
20260903023003 76 0 0.0 0.0 0.00 0.00 0.00 67 1009.6
20260903022503 76 0 0.0 0.0 0.00 0.00 0.00 67 1009.6
20260903022003 76 337 1.0 2.0 0.00 0.00 0.00 67 1009.8
20260903021503 76 337 1.0 2.0 0.00 0.00 0.00 67 1009.8
20260903021003 77 337 0.0 1.0 0.00 0.00 0.00 67 1009.7
20260903020503 77 325 1.0 2.0 0.00 0.00 0.00 66 1009.8
20260903020003 78 315 1.0 2.0 0.00 0.00 0.00 66 1009.8
20260903015503 78 315 1.0 2.0 0.00 0.00 0.00 66 1009.8
20260903015003 78 315 1.0 2.0 0.00 0.00 0.00 66 1009.9
20260903014503 78 314 1.0 3.0 0.00 0.00 0.00 66 1009.8
20260903014003 78 272 0.0 2.0 0.00 0.00 0.00 66 1009.9
20260903013503 78 274 1.0 2.0 0.00 0.00 0.00 66 1009.9
20260903013003 78 276 1.0 2.0 0.00 0.00 0.00 66 1009.9
20260903012503 78 273 1.0 3.0 0.00 0.00 0.00 66 1009.9
20260903012003 78 291 0.0 2.0 0.00 0.00 0.00 66 1009.9
20260903011503 78 313 1.0 2.0 0.00 0.00 0.00 66 1009.8
20260903011003 78 292 0.0 1.0 0.00 0.00 0.00 66 1009.8
20260903010503 78 292 0.0 1.0 0.00 0.00 0.00 67 1010.0
20260903010003 78 303 0.0 2.0 0.00 0.00 0.00 67 1010.0
20260903005503 78 307 0.0 2.0 0.00 0.00 0.00 67 1010.0
20260903005003 78 271 1.0 2.0 0.00 0.00 0.00 68 1010.0
20260903004503 77 270 0.0 2.0 0.00 0.00 0.00 68 1010.0
20260903004003 77 276 0.0 2.0 0.00 0.00 0.00 68 1009.9
20260903003503 77 0 0.0 0.0 0.00 0.00 0.00 68 1009.8
20260903003003 76 22 0.0 1.0 0.00 0.00 0.00 68 1010.0
20260903002503 76 22 0.0 2.0 0.00 0.00 0.00 68 1010.0
20260903002003 76 0 0.0 0.0 0.00 0.00 0.00 68 1009.9
20260903001503 76 0 0.0 0.0 0.00 0.00 0.00 68 1010.0
20260903001003 77 0 0.0 0.0 0.00 0.00 0.00 68 1009.9
20260903000503 77 0 0.0 0.0 0.00 0.00 0.00 68 1010.0
20260903000003 77 67 0.0 2.0 0.00 0.00 0.00 67 1009.9
20260902235503 78 32 2.0 3.0 0.00 0.00 0.00 67 1009.9
20260902235003 78 0 0.0 0.0 0.00 0.00 0.00 67 1009.8
20260902234503 78 0 0.0 0.0 0.00 0.00 0.00 67 1009.8
20260902234003 79 0 0.0 0.0 0.00 0.00 0.00 67 1009.9
20260902233503 79 0 0.0 0.0 0.00 0.00 0.00 67 1009.9
20260902233003 79 0 0.0 0.0 0.00 0.00 0.00 67 1010.0
20260902232503 79 292 0.0 1.0 0.00 0.00 0.00 67 1010.1
20260902232003 79 0 0.0 0.0 0.00 0.00 0.00 67 1010.1
20260902231503 79 292 0.0 2.0 0.00 0.00 0.00 67 1010.0
20260902231003 80 292 0.0 2.0 0.00 0.00 0.00 67 1009.9
20260902230503 80 284 0.0 2.0 0.00 0.00 0.00 66 1010.1
20260902230003 80 270 0.0 1.0 0.00 0.00 0.00 66 1010.2
20260902225503 80 287 1.0 3.0 0.00 0.00 0.00 66 1010.2
20260902225003 80 269 1.0 5.0 0.00 0.00 0.00 66 1010.2
20260902224503 80 310 1.0 4.0 0.00 0.00 0.00 66 1010.2
20260902224003 80 275 1.0 2.0 0.00 0.00 0.00 66 1010.0
20260902223503 80 270 0.0 1.0 0.00 0.00 0.00 66 1010.2
20260902223003 80 270 0.0 2.0 0.00 0.00 0.00 66 1010.0
20260902222503 80 270 0.0 1.0 0.00 0.00 0.00 66 1010.0
20260902222004 80 270 0.0 1.0 0.00 0.00 0.00 66 1010.0
20260902221503 80 257 0.0 2.0 0.00 0.00 0.00 67 1010.2
20260902221003 80 270 1.0 2.0 0.00 0.00 0.00 67 1010.2
20260902220503 80 277 0.0 2.0 0.00 0.00 0.00 67 1010.2
20260902220003 80 270 1.0 2.0 0.00 0.00 0.00 67 1010.2
20260902215503 80 259 1.0 2.0 0.00 0.00 0.00 67 1010.2
20260902215003 80 284 0.0 1.0 0.00 0.00 0.00 66 1010.2
20260902214503 80 0 0.0 0.0 0.00 0.00 0.00 66 1010.1
20260902214003 80 0 0.0 0.0 0.00 0.00 0.00 66 1010.2
20260902213503 80 305 0.0 1.0 0.00 0.00 0.00 66 1010.3
20260902213003 80 0 0.0 0.0 0.00 0.00 0.00 66 1010.3
20260902212503 80 315 0.0 1.0 0.00 0.00 0.00 66 1010.3
20260902212003 80 315 0.0 2.0 0.00 0.00 0.00 66 1010.3
20260902211503 80 0 0.0 0.0 0.00 0.00 0.00 66 1010.2
20260902211003 80 315 0.0 1.0 0.00 0.00 0.00 66 1010.2
20260902210503 80 315 0.0 2.0 0.00 0.00 0.00 66 1010.3